Stations météo

réclame
Mon MeteoGroup
Lechfeld, Allemagne (10856): Température de l'air & dewpoint: 16.09.2018 23:00:00 - 22.09.2018 23:00:00 (CEST)Lechfeld, Allemagne (10856): Vitesse du vent & gusts: 16.09.2018 23:00:00 - 22.09.2018 23:00:00 (CEST)Lechfeld, Allemagne (10856): Direction du vent: 16.09.2018 23:00:00 - 22.09.2018 23:00:00 (CEST)Lechfeld, Allemagne (10856): reduced air pressure: 16.09.2018 23:00:00 - 22.09.2018 23:00:00 (CEST)Lechfeld, Allemagne (10856): visibility: 16.09.2018 23:00:00 - 22.09.2018 23:00:00 (CEST)
Date & Time tt [°C] td [°C] ff [km/h] ff [knt] fx [km/h] fx [knt] dd ppp [hPa] vv [km]
22.09.2018 23:00:00 11,8 10,5 7 4 - - SSW 1021,3 18
22.09.2018 22:00:00 13,2 6,9 7 4 - - SW 1021,1 18
22.09.2018 21:00:00 12,7 7,5 7 4 - - SSW 1021,3 20
22.09.2018 20:00:00 14,7 4,5 7 4 - - SSW 1020,4 29
22.09.2018 19:00:00 15,4 4,0 7 4 - - SSW 1020,2 30
22.09.2018 18:00:00 16,1 3,1 14 8 - - SW 1020,4 35
22.09.2018 17:00:00 16,0 3,3 11 6 - - WSW 1020,8 40
22.09.2018 16:00:00 16,1 3,8 11 6 - - W 1021,4 29
22.09.2018 15:00:00 15,4 5,2 11 6 - - SSW 1021,9 17
22.09.2018 14:00:00 14,8 4,7 11 6 - - W 1023,1 24
22.09.2018 13:00:00 14,0 5,0 11 6 - - W 1023,8 21
22.09.2018 12:00:00 13,4 4,9 11 6 - - WSW 1024,4 21
22.09.2018 11:00:00 12,8 5,4 14 8 - - WSW 1024,9 20
22.09.2018 10:00:00 12,0 7,4 14 8 - - WSW 1025,1 19
22.09.2018 09:00:00 10,7 7,8 11 6 - - SW 1024,9 16
22.09.2018 08:00:00 9,5 7,5 11 6 - - SSW 1025,0 18
22.09.2018 07:00:00 9,8 6,6 7 4 - - SW 1024,9 21
22.09.2018 06:00:00 10,2 6,9 11 6 - - SW 1024,8 20
22.09.2018 05:00:00 10,9 7,4 11 6 - - WSW 1024,0 19
22.09.2018 04:00:00 11,2 7,8 11 6 - - SW 1023,8 18
22.09.2018 03:00:00 11,3 7,7 11 6 - - SW 1023,2 19
22.09.2018 02:00:00 11,6 7,8 14 8 - - SSW 1022,8 20
22.09.2018 01:00:00 11,8 8,2 11 6 - - SW 1022,2 18
22.09.2018 00:00:00 12,0 7,4 14 8 - - W 1020,9 19
21.09.2018 23:00:00 12,0 9,1 14 8 - - W 1020,3 18
21.09.2018 22:00:00 11,9 9,5 29 16 47 25 WNW 1018,8 13
21.09.2018 21:00:00 13,9 11,0 36 19 54 29 WNW 1016,8 14
21.09.2018 20:00:00 18,5 13,6 18 10 - - SW 1013,1 20
21.09.2018 19:00:00 21,4 12,4 25 14 47 25 WSW 1011,6 20
21.09.2018 18:00:00 23,4 12,0 18 10 - - WSW 1010,0 40
21.09.2018 17:00:00 24,3 11,3 18 10 - - SW 1009,4 50
21.09.2018 16:00:00 25,2 10,6 22 12 50 27 SW 1009,8 50
21.09.2018 15:00:00 25,8 10,6 29 16 50 27 SW 1010,1 50
21.09.2018 14:00:00 26,3 11,5 32 18 - - SW 1010,6 50
21.09.2018 13:00:00 25,4 11,6 25 14 - - SW 1011,2 50
21.09.2018 12:00:00 25,4 11,4 22 12 - - SW 1011,7 50
21.09.2018 11:00:00 23,3 12,9 14 8 - - SW 1012,3 50
21.09.2018 10:00:00 20,4 12,5 14 8 - - SSW 1013,3 50
21.09.2018 09:00:00 17,9 11,2 14 8 - - S 1013,7 50
21.09.2018 08:00:00 15,5 10,7 14 8 - - S 1014,4 50
21.09.2018 07:00:00 14,2 10,7 14 8 - - S 1014,5 40
21.09.2018 06:00:00 12,9 10,3 7 4 - - S 1015,0 40
21.09.2018 05:00:00 12,5 11,8 11 6 - - S 1015,7 40
21.09.2018 04:00:00 14,1 11,8 11 6 - - SSW 1015,5 40
21.09.2018 03:00:00 11,2 11,0 7 4 - - S 1016,4 40
21.09.2018 02:00:00 12,9 12,8 11 6 - - S 1016,5 40
21.09.2018 01:00:00 13,4 11,9 7 4 - - S 1016,8 40
21.09.2018 00:00:00 13,6 12,4 7 4 - - S 1017,4 50
20.09.2018 23:00:00 12,2 10,8 7 4 - - S 1018,3 50
20.09.2018 22:00:00 17,5 12,4 4 2 - - SSE 1017,2 50
20.09.2018 21:00:00 18,3 12,6 7 4 - - ESE 1017,1 50
20.09.2018 20:00:00 19,1 12,0 7 4 - - E 1016,9 50
20.09.2018 19:00:00 21,8 13,0 7 4 - - E 1016,2 50
20.09.2018 18:00:00 25,0 12,9 7 4 - - ENE 1015,9 50
20.09.2018 17:00:00 26,0 11,4 7 4 - - NE 1016,1 50
20.09.2018 16:00:00 26,6 10,8 7 4 - - SE 1016,5 50
20.09.2018 15:00:00 25,9 12,2 7 4 - - N 1017,2 50
20.09.2018 14:00:00 25,6 12,4 4 2 - - N 1017,9 50
20.09.2018 13:00:00 24,7 12,2 7 4 - - SSW 1018,6 50
20.09.2018 12:00:00 23,4 12,1 7 4 - - N 1019,6 50
20.09.2018 11:00:00 21,7 13,4 7 4 - - SSW 1020,4 50
20.09.2018 10:00:00 19,5 12,5 7 4 - - S 1020,9 50
20.09.2018 09:00:00 15,9 12,6 11 6 - - SSE 1021,6 50
20.09.2018 08:00:00 13,6 11,0 7 4 - - S 1022,1 40
20.09.2018 07:00:00 12,1 11,8 7 4 - - S 1022,2 40
20.09.2018 06:00:00 11,7 11,7 11 6 - - S 1022,2 50
20.09.2018 05:00:00 11,3 11,2 11 6 - - S 1022,3 50
20.09.2018 04:00:00 13,5 12,5 7 4 - - SSW 1021,8 50
20.09.2018 03:00:00 14,7 12,2 7 4 - - SSW 1021,4 50
20.09.2018 02:00:00 14,6 12,8 7 4 - - S 1021,7 50
20.09.2018 01:00:00 15,9 13,2 14 8 - - S 1021,3 50
20.09.2018 00:00:00 17,1 13,9 14 8 - - S 1021,4 50
19.09.2018 23:00:00 16,5 13,8 7 4 - - S 1021,7 50
19.09.2018 22:00:00 15,9 13,7 4 2 - - SSW 1021,8 60
19.09.2018 21:00:00 18,0 14,3 4 2 - - SSE 1020,9 60
19.09.2018 20:00:00 19,2 14,6 7 4 - - ENE 1020,3 50
19.09.2018 19:00:00 23,5 11,9 7 4 - - N 1019,1 50
19.09.2018 18:00:00 25,2 11,4 7 4 - - WNW 1018,4 50
19.09.2018 17:00:00 25,5 12,2 7 4 - - SSW 1018,4 50
19.09.2018 16:00:00 25,2 13,3 7 4 - - SW 1018,7 50
19.09.2018 15:00:00 24,6 12,7 11 6 - - WSW 1019,3 50
19.09.2018 14:00:00 23,9 12,6 4 2 - - NW 1019,6 50
19.09.2018 13:00:00 22,9 12,5 7 4 - - NE 1020,3 50
19.09.2018 12:00:00 21,9 11,9 7 4 - - NW 1021,0 30
19.09.2018 11:00:00 20,7 12,6 7 4 - - S 1021,3 50
19.09.2018 10:00:00 19,0 13,0 11 6 - - S 1021,3 50
19.09.2018 09:00:00 16,1 12,8 11 6 - - S 1021,7 40
19.09.2018 08:00:00 13,1 12,8 11 6 - - S 1022,0 30
19.09.2018 07:00:00 13,0 12,1 7 4 - - N 1021,9 30
19.09.2018 06:00:00 11,6 9,6 11 6 - - SSE 1021,2 30
19.09.2018 05:00:00 12,2 12,2 7 4 - - SE 1021,2 30
19.09.2018 04:00:00 13,5 11,7 11 6 - - SW 1020,8 30
19.09.2018 03:00:00 14,9 11,8 14 8 - - SSW 1020,2 30
19.09.2018 02:00:00 15,8 12,1 11 6 - - S 1019,8 30
19.09.2018 01:00:00 16,0 11,9 7 4 - - S 1019,7 30
19.09.2018 00:00:00 17,0 11,7 14 8 - - S 1019,3 30
18.09.2018 23:00:00 17,7 11,7 11 6 - - S 1019,1 30
18.09.2018 22:00:00 17,7 12,0 14 8 - - S 1018,8 30
18.09.2018 21:00:00 17,5 12,4 11 6 - - S 1018,3 40
18.09.2018 20:00:00 19,4 12,0 18 10 - - S 1017,3 40
18.09.2018 19:00:00 21,5 13,7 18 10 - - S 1016,3 20
18.09.2018 18:00:00 23,3 13,9 14 8 - - SSW 1015,6 30
18.09.2018 17:00:00 25,1 12,8 18 10 - - SW 1015,2 40
18.09.2018 16:00:00 26,3 11,3 11 6 - - WSW 1015,0 50
18.09.2018 15:00:00 26,0 12,4 14 8 - - SW 1015,5 40
18.09.2018 14:00:00 25,4 13,2 11 6 - - WSW 1016,0 40
18.09.2018 13:00:00 24,6 13,7 11 6 - - WSW 1016,5 40
18.09.2018 12:00:00 23,9 13,7 11 6 - - SW 1016,9 30
18.09.2018 11:00:00 20,9 14,5 11 6 - - SW 1017,8 20
18.09.2018 10:00:00 19,0 14,2 11 6 - - SSW 1017,9 20
18.09.2018 09:00:00 16,8 13,5 7 4 - - S 1018,5 20
18.09.2018 08:00:00 14,0 13,0 11 6 - - S 1018,9 20
18.09.2018 07:00:00 11,9 11,1 7 4 - - S 1018,8 15
18.09.2018 06:00:00 12,3 12,3 14 8 - - S 1018,6 20
18.09.2018 05:00:00 13,3 12,6 7 4 - - SSW 1018,5 20
18.09.2018 04:00:00 11,6 11,6 4 2 - - SSE 1018,8 15
18.09.2018 03:00:00 10,7 10,6 7 4 - - S 1019,1 20
18.09.2018 02:00:00 13,5 13,3 4 2 - - NW 1018,4 20
18.09.2018 01:00:00 13,2 13,1 4 2 - - S 1018,8 20
18.09.2018 00:00:00 14,2 14,2 0 0 - - N 1019,0 25
17.09.2018 23:00:00 16,0 13,5 4 2 - - N 1018,8 25
17.09.2018 22:00:00 17,0 13,9 7 4 - - SSE 1018,6 25
17.09.2018 21:00:00 17,8 14,1 4 2 - - ESE 1018,5 20
17.09.2018 20:00:00 19,2 14,3 7 4 - - ESE 1018,1 20
17.09.2018 19:00:00 21,9 14,8 7 4 - - E 1017,3 30
17.09.2018 18:00:00 23,5 14,0 11 6 - - ESE 1017,1 30
17.09.2018 17:00:00 24,0 13,2 7 4 - - E 1017,4 30
17.09.2018 16:00:00 24,0 12,7 7 4 - - NNW 1017,9 30
17.09.2018 15:00:00 23,7 12,8 11 6 - - W 1018,6 30
17.09.2018 14:00:00 23,1 12,9 4 2 - - W 1019,1 30
17.09.2018 13:00:00 22,6 13,9 7 4 - - N 1019,7 20
17.09.2018 12:00:00 21,6 14,7 7 4 - - WNW 1020,3 20
17.09.2018 11:00:00 20,6 14,5 11 6 - - SSW 1021,0 15
17.09.2018 10:00:00 18,8 14,6 11 6 - - S 1021,4 15
17.09.2018 09:00:00 15,7 14,4 11 6 - - S 1022,2 12
17.09.2018 08:00:00 13,5 13,4 11 6 - - S 1022,9 2,5
17.09.2018 07:00:00 12,1 12,0 4 2 - - SW 1022,8 0,6
17.09.2018 06:00:00 11,8 11,7 4 2 - - S 1022,7 6
17.09.2018 05:00:00 12,8 12,7 4 2 - - SSW 1021,9 10
17.09.2018 04:00:00 13,1 13,1 11 6 - - S 1021,9 10
17.09.2018 03:00:00 15,3 15,2 7 4 - - SSW 1021,6 15
17.09.2018 02:00:00 13,6 13,2 7 4 - - SSE 1022,1 15
17.09.2018 01:00:00 15,1 15,0 7 4 - - SSW 1021,9 15
17.09.2018 00:00:00 14,9 14,8 7 4 - - S 1022,1 20
16.09.2018 23:00:00 16,6 14,9 4 2 - - SSW 1021,7 15

tt = Température de l'air
td = dewpoint
ff = Vitesse du vent
fx = gusts
dd = Direction du vent
ppp = reduced air pressure
vv = visibility

stations d'obs. à proximité